Weather in Stanislavchik

Ukraine / Lviv District     50°10′14″N   24°54′47″E
temp.,
°C
wind,
m/s
gust,
m/s
humid.,
%
clouds,
%
prec.,
mm/h
press.,
hPa
HPBL,
m
21 january, fri
fri2123:00−3w8147582 0.0 10081100
02:00−3w91584100 0.3 10091134
05:00−3w91475100 0.1 10101136
08:00−4w101680100 0.1 10101004
11:00−3w101786100 0.1 10111059
14:00−2w10158397 0.4 10111189
17:00−3w9158398 0.1 1011989
20:00−3w91592100 0.3 10121049
22 january, sat
sat2223:00−3wnw81389100 0.6 1012917
02:00−4w7139296 0.8 1012879
05:00−4w7128799 0.2 1012648
08:00−5w71494100 0.4 1012745
11:00−3wnw71294100 1.4 1013926
14:00−2nnw6108251 1.9 10151030
17:00−4nw51186100 0.1 1018412
20:00−4nw61194100 0.2 1020711
23 january, sun
sun2323:00−4nw71291100 0.3 1020795
02:00−4nw71194100 0.7 1021915
05:00−5nnw6129099 0.2 1023695
08:00−6nnw51093100 0.3 1025628
11:00−5n5780100 0.1 1027860
14:00−4n5779100 0.2 1028963
17:00−6n478799 0.1 1030254
20:00−8n3795100 0.1 1032230
24 january, mon
mon2423:00−9nne269758 0.0 1034148
02:00−11ne129764 0.1 103536
05:00−12nw119882 0.0 103611
08:00−12nw119874 0.1 103710
11:00−9wnw118870 0.0 1038181
14:00−6nw228361 0.0 1036337
17:00−9wnw11945 0.0 103610
20:00−11wsw119626 0.0 103612
25 january, tue
tue2523:00−11sw239732 0.0 103638
02:00−12sw239699 0.0 103555
05:00−11sw3592100 0.0 103395
08:00−11sw3690100 0.0 1031118
11:00−7sw4792100 0.3 1030217
14:00−3wsw5994100 0.7 1026361
17:00−2w41197100 0.7 1025364
20:00−1wnw51097100 1.5 1024511